KB6LA Weather Reports


time (UTC)temp
C
wind
direction
speed
KPH
gust
KPH
rain 1hr
cm
rain 24hr
cm
rain mn
cm
humidity
%
barometer
mb
20260506020227 15 229 6.4 16.1 0.00 0.00 0.00 72 1013.4
20260506015720 15 234 8.0 16.1 0.00 0.00 0.00 72 1013.4
20260506014705 16 231 6.4 14.5 0.00 0.00 0.00 69 1013.4
20260506013651 16 261 4.8 17.7 0.00 0.00 0.00 68 1013.4
20260506013144 16 220 11.3 17.7 0.00 0.00 0.00 67 1013.1
20260506012637 16 268 12.9 14.5 0.00 0.00 0.00 68 1013.1
20260506012130 16 238 6.4 12.9 0.00 0.00 0.00 68 1013.1
20260506011622 16 252 4.8 12.9 0.00 0.00 0.00 68 1013.1
20260506010608 15 250 8.0 16.1 0.00 0.00 0.00 70 1013.4
20260506010100 15 274 4.8 16.1 0.00 0.00 0.00 70 1013.1
20260506005553 15 258 9.7 17.7 0.00 0.00 0.00 70 1013.1
20260506005045 15 160 11.3 17.7 0.00 0.00 0.00 70 1013.1
20260506004538 15 247 9.7 20.9 0.00 0.00 0.00 69 1013.1
20260506004031 15 283 6.4 22.5 0.00 0.00 0.00 69 1013.1
20260506003524 15 223 14.5 22.5 0.00 0.00 0.00 68 1013.1
20260506003016 15 223 14.5 17.7 0.00 0.00 0.00 67 1013.1
20260506002002 15 217 12.9 20.9 0.00 0.00 0.00 67 1013.1
20260506001455 15 232 8.0 27.4 0.00 0.00 0.00 67 1013.1
20260506000948 16 231 12.9 27.4 0.00 0.00 0.00 66 1013.1
20260506000440 16 248 14.5 20.9 0.00 0.00 0.00 65 1013.1
20260505235933 16 233 12.9 22.5 0.00 0.00 0.00 66 1013.1
20260505235426 16 241 9.7 24.1 0.00 0.00 0.00 65 1013.1
20260505234918 16 201 14.5 24.1 0.00 0.00 0.00 65 1013.1
20260505234410 16 250 12.9 24.1 0.00 0.00 0.00 66 1013.1
20260505233903 16 231 17.7 24.1 0.00 0.00 0.00 64 1013.1
20260505233356 16 37 9.7 27.4 0.00 0.00 0.00 65 1013.1
20260505232849 16 250 11.3 27.4 0.00 0.00 0.00 68 1013.1
20260505232342 16 262 11.3 25.7 0.00 0.00 0.00 71 1012.8
20260505231835 15 248 12.9 27.4 0.00 0.00 0.00 73 1013.1
20260505230819 15 244 12.9 29.0 0.00 0.00 0.00 75 1013.1
20260505230313 15 227 11.3 29.0 0.00 0.00 0.00 76 1013.4
20260505225805 15 211 9.7 30.6 0.00 0.00 0.00 74 1013.4
20260505225258 15 134 16.1 30.6 0.00 0.00 0.00 72 1013.4
20260505224243 15 248 11.3 30.6 0.00 0.00 0.00 72 1013.4
20260505223736 15 262 19.3 30.6 0.00 0.00 0.00 71 1013.4
20260505223229 15 242 17.7 35.4 0.00 0.00 0.00 71 1013.4
20260505222722 15 260 19.3 35.4 0.00 0.00 0.00 69 1013.4
20260505222215 16 248 17.7 29.0 0.00 0.00 0.00 70 1013.4
20260505221200 16 220 20.9 30.6 0.00 0.00 0.00 71 1013.4
20260505220653 16 197 19.3 30.6 0.00 0.00 0.00 71 1013.8
20260505220145 16 239 14.5 30.6 0.00 0.00 0.00 68 1013.8
20260505215131 16 235 24.1 33.8 0.00 0.00 0.00 69 1013.4
20260505214624 16 225 22.5 33.8 0.00 0.00 0.00 67 1013.8
20260505214116 15 168 14.5 27.4 0.00 0.00 0.00 70 1013.8
20260505213608 16 244 19.3 29.0 0.00 0.00 0.00 68 1013.8
20260505213101 16 229 20.9 30.6 0.00 0.00 0.00 66 1013.8
20260505212554 17 223 19.3 30.6 0.00 0.00 0.00 63 1014.1
20260505212046 16 241 6.4 25.7 0.00 0.00 0.00 65 1013.8
20260505211539 16 218 22.5 30.6 0.00 0.00 0.00 64 1013.8
20260505211032 16 297 12.9 30.6 0.00 0.00 0.00 61 1014.1
20260505210525 16 169 14.5 30.6 0.00 0.00 0.00 61 1013.8
20260505210018 16 245 12.9 30.6 0.00 0.00 0.00 61 1013.8
20260505205510 16 236 17.7 27.4 0.00 0.00 0.00 60 1013.8
20260505205004 16 245 17.7 27.4 0.00 0.00 0.00 57 1013.8
20260505204456 16 240 9.7 30.6 0.00 0.00 0.00 59 1013.8
20260505203949 16 224 16.1 30.6 0.00 0.00 0.00 63 1013.8
20260505203442 17 194 19.3 30.6 0.00 0.00 0.00 59 1013.8
20260505202934 16 261 9.7 29.0 0.00 0.00 0.00 64 1013.8
20260505202427 16 216 9.7 27.4 0.00 0.00 0.00 63 1013.8
20260505201920 16 269 17.7 27.4 0.00 0.00 0.00 63 1013.8
20260505201412 16 220 19.3 27.4 0.00 0.00 0.00 62 1013.8
20260505200906 16 197 16.1 27.4 0.00 0.00 0.00 60 1013.8
20260505200357 16 209 17.7 25.7 0.00 0.00 0.00 62 1013.8
20260505195850 16 247 14.5 25.7 0.00 0.00 0.00 65 1014.1
20260505195344 16 238 17.7 25.7 0.00 0.00 0.00 64 1014.1
20260505194835 16 203 14.5 27.4 0.00 0.00 0.00 60 1013.8
20260505194328 16 252 16.1 29.0 0.00 0.00 0.00 61 1014.1
20260505193314 16 227 24.1 29.0 0.00 0.00 0.00 56 1014.1
20260505192807 16 236 14.5 29.0 0.00 0.00 0.00 56 1014.1
20260505192259 16 228 16.1 29.0 0.00 0.00 0.00 61 1014.1
20260505191752 16 238 22.5 25.7 0.00 0.00 0.00 59 1014.1
20260505191245 16 249 19.3 25.7 0.00 0.00 0.00 59 1014.1
20260505190738 16 213 19.3 24.1 0.00 0.00 0.00 59 1013.8
20260505190230 16 245 17.7 27.4 0.00 0.00 0.00 59 1014.1
20260505185723 16 214 17.7 27.4 0.00 0.00 0.00 59 1014.1
20260505185215 16 218 12.9 25.7 0.00 0.00 0.00 59 1014.1
20260505184708 16 266 14.5 22.5 0.00 0.00 0.00 59 1014.1
20260505184201 16 247 14.5 22.5 0.00 0.00 0.00 59 1014.1
20260505183653 17 238 9.7 20.9 0.00 0.00 0.00 62 1014.1
20260505183146 16 162 6.4 22.5 0.00 0.00 0.00 64 1014.1
20260505182639 16 232 3.2 22.5 0.00 0.00 0.00 66 1014.1
20260505182132 16 292 12.9 22.5 0.00 0.00 0.00 66 1014.1
20260505181624 16 215 14.5 22.5 0.00 0.00 0.00 66 1014.1
20260505175555 15 252 11.3 20.9 0.00 0.00 0.00 71 1014.1
20260505175048 15 235 8.0 20.9 0.00 0.00 0.00 71 1013.8
20260505174540 15 197 12.9 22.5 0.00 0.00 0.00 73 1013.8
20260505174034 15 187 12.9 22.5 0.00 0.00 0.00 71 1013.8
20260505173019 15 238 4.8 16.1 0.00 0.00 0.00 72 1013.4
20260505172511 15 279 6.4 16.1 0.00 0.00 0.00 71 1013.8
20260505172005 15 275 6.4 16.1 0.00 0.00 0.00 71 1013.8
20260505171458 16 210 12.9 16.1 0.00 0.00 0.00 70 1013.4
20260505170950 15 214 11.3 17.7 0.00 0.00 0.00 71 1013.8
20260505170443 15 209 11.3 20.9 0.00 0.00 0.00 71 1013.4
20260505165936 16 244 9.7 20.9 0.00 0.00 0.00 70 1013.4
20260505165428 16 289 8.0 16.1 0.00 0.00 0.00 70 1013.4
20260505164920 16 205 8.0 16.1 0.00 0.00 0.00 69 1013.4
20260505164413 16 209 6.4 16.1 0.00 0.00 0.00 68 1013.4
20260505163906 16 252 3.2 16.1 0.00 0.00 0.00 67 1013.1
20260505163359 16 245 8.0 16.1 0.00 0.00 0.00 67 1013.1
20260505162851 16 189 8.0 14.5 0.00 0.00 0.00 68 1013.1
20260505161330 16 160 8.0 12.9 0.00 0.00 0.00 66 1013.1
20260505160823 16 202 6.4 12.9 0.00 0.00 0.00 67 1012.8
20260505160315 15 224 4.8 14.5 0.00 0.00 0.00 67 1012.8
20260505153231 16 291 0.0 6.4 0.00 0.00 0.00 65 1012.8
20260505152723 15 228 4.8 9.7 0.00 0.00 0.00 67 1012.8
20260505152216 15 243 6.4 6.4 0.00 0.00 0.00 66 1012.8
20260505151709 15 214 1.6 6.4 0.00 0.00 0.00 67 1012.8
20260505151202 15 172 3.2 6.4 0.00 0.00 0.00 68 1012.8
20260505150655 15 250 3.2 4.8 0.00 0.00 0.00 68 1012.8
20260505150148 16 105 1.6 4.8 0.00 0.00 0.00 68 1012.8
20260505140528 12 331 0.0 3.2 0.00 0.00 0.00 78 1012.4
20260505124839 12 304 3.2 3.2 0.00 0.00 0.00 80 1012.4
20260505124332 12 316 1.6 3.2 0.00 0.00 0.00 80 1012.4
20260505123318 12 304 1.6 3.2 0.00 0.00 0.00 80 1012.4
20260505122810 12 314 1.6 3.2 0.00 0.00 0.00 80 1012.1
20260505120741 12 320 3.2 3.2 0.00 0.00 0.00 81 1012.1
20260505120234 13 316 1.6 3.2 0.00 0.00 0.00 81 1012.1
20260505115727 13 318 1.6 3.2 0.00 0.00 0.00 82 1012.1
20260505114712 13 290 1.6 3.2 0.00 0.00 0.00 82 1012.1
20260505114205 13 287 1.6 3.2 0.00 0.00 0.00 81 1012.1
20260505113657 13 233 3.2 3.2 0.00 0.00 0.00 80 1012.4
20260505113150 13 226 3.2 3.2 0.00 0.00 0.00 80 1012.4
20260505112643 13 267 0.0 3.2 0.00 0.00 0.00 79 1012.1
20260505111629 13 296 1.6 3.2 0.00 0.00 0.00 79 1012.1
20260505111121 13 294 0.0 3.2 0.00 0.00 0.00 79 1012.1
20260505110106 13 281 0.0 4.8 0.00 0.00 0.00 79 1012.4
20260505102009 14 251 3.2 4.8 0.00 0.00 0.00 77 1012.4
20260505101501 14 284 3.2 4.8 0.00 0.00 0.00 76 1012.4
20260505100954 14 260 3.2 6.4 0.00 0.00 0.00 75 1012.4
20260505100447 14 284 4.8 6.4 0.00 0.00 0.00 74 1012.4
20260505095940 14 253 3.2 6.4 0.00 0.00 0.00 73 1012.4
20260505095433 14 294 3.2 6.4 0.00 0.00 0.00 72 1012.4
20260505094925 14 267 3.2 4.8 0.00 0.00 0.00 71 1012.4
20260505093911 14 260 4.8 4.8 0.00 0.00 0.00 71 1012.4
20260505093404 14 310 1.6 6.4 0.00 0.00 0.00 71 1012.4
20260505092856 14 264 1.6 6.4 0.00 0.00 0.00 71 1012.8
20260505092349 14 301 0.0 6.4 0.00 0.00 0.00 71 1012.8
20260505091842 14 320 1.6 6.4 0.00 0.00 0.00 71 1012.8
20260505091335 14 344 0.0 4.8 0.00 0.00 0.00 71 1012.8
20260505090827 14 282 1.6 6.4 0.00 0.00 0.00 71 1012.8
20260505090320 14 278 1.6 6.4 0.00 0.00 0.00 70 1013.1
20260505085812 14 306 4.8 6.4 0.00 0.00 0.00 70 1012.8
20260505085305 14 327 0.0 4.8 0.00 0.00 0.00 71 1013.1
20260505084758 14 312 1.6 4.8 0.00 0.00 0.00 72 1013.1
20260505084251 15 308 4.8 4.8 0.00 0.00 0.00 72 1013.1
20260505083744 15 303 3.2 4.8 0.00 0.00 0.00 73 1013.1
20260505083236 15 272 4.8 6.4 0.00 0.00 0.00 73 1013.1
20260505082729 15 318 1.6 6.4 0.00 0.00 0.00 74 1013.1
20260505081714 14 330 3.2 4.8 0.00 0.00 0.00 77 1013.1
20260505080153 14 321 1.6 3.2 0.00 0.00 0.00 79 1013.4
20260505075140 14 304 0.0 3.2 0.00 0.00 0.00 82 1013.4
20260505074631 14 285 0.0 1.6 0.00 0.00 0.00 84 1013.4
20260505074124 14 271 1.6 3.2 0.00 0.00 0.00 84 1013.4
20260505073617 14 251 1.6 3.2 0.00 0.00 0.00 84 1013.4
20260505072602 14 276 0.0 0.0 0.00 0.00 0.00 84 1013.4
20260505072055 14 283 0.0 0.0 0.00 0.00 0.00 85 1013.4
20260505071548 14 317 0.0 1.6 0.00 0.00 0.00 85 1013.8
20260505071040 14 317 0.0 1.6 0.00 0.00 0.00 85 1013.4
20260505070026 14 316 1.6 3.2 0.00 0.00 0.00 85 1013.4
20260505065518 14 318 1.6 3.2 0.00 0.00 0.00 86 1013.4
20260505065011 14 336 0.0 3.2 0.00 0.00 0.00 86 1013.4
20260505064504 14 346 0.0 3.2 0.00 0.00 0.00 86 1013.4
20260505063956 14 311 1.6 3.2 0.00 0.00 0.00 87 1013.4
20260505063449 14 263 1.6 3.2 0.00 0.00 0.00 87 1013.4
20260505062943 14 288 1.6 3.2 0.00 0.00 0.00 87 1013.4
20260505062435 14 275 0.0 4.8 0.00 0.00 0.00 87 1013.8
20260505061928 13 290 1.6 6.4 0.00 0.00 0.00 87 1013.4
20260505061420 13 251 4.8 4.8 0.00 0.00 0.00 87 1013.4
20260505060913 13 245 3.2 4.8 0.00 0.00 0.00 87 1013.4
20260505060405 14 251 3.2 6.4 0.00 0.00 0.00 86 1013.4
20260505055858 14 290 1.6 6.4 0.00 0.00 0.00 86 1013.8
20260505055351 14 227 4.8 4.8 0.00 0.00 0.00 86 1013.8
20260505054844 14 252 4.8 4.8 0.00 0.00 0.00 86 1013.8
20260505053830 14 265 1.6 4.8 0.00 0.00 0.00 86 1013.8
20260505053322 14 270 4.8 4.8 0.00 0.00 0.00 86 1013.8
20260505052814 14 240 3.2 6.4 0.00 0.00 0.00 85 1013.8
20260505052307 14 228 3.2 6.4 0.00 0.00 0.00 85 1013.8
20260505051800 14 293 3.2 6.4 0.00 0.00 0.00 85 1013.8
20260505051253 14 288 1.6 6.4 0.00 0.00 0.00 85 1013.8
20260505050746 14 285 3.2 6.4 0.00 0.00 0.00 85 1013.8
20260505050239 14 284 0.0 9.7 0.00 0.00 0.00 85 1013.8
20260505041633 14 231 6.4 9.7 0.00 0.00 0.00 85 1014.1
20260505041126 14 259 3.2 11.3 0.00 0.00 0.00 85 1014.1
20260505040619 14 244 6.4 11.3 0.00 0.00 0.00 84 1014.1
20260505040111 14 237 6.4 11.3 0.00 0.00 0.00 84 1014.1
20260505035604 14 281 6.4 12.9 0.00 0.00 0.00 84 1014.1
20260505035057 14 261 9.7 12.9 0.00 0.00 0.00 83 1014.1
20260505034549 14 242 6.4 14.5 0.00 0.00 0.00 82 1014.1
20260505034042 14 265 4.8 14.5 0.00 0.00 0.00 81 1013.8
20260505033535 14 259 11.3 14.5 0.00 0.00 0.00 80 1013.8
20260505033028 14 240 8.0 14.5 0.00 0.00 0.00 80 1013.8
20260505032520 14 253 6.4 12.9 0.00 0.00 0.00 80 1013.8
20260505032013 14 237 6.4 16.1 0.00 0.00 0.00 79 1013.8
20260505031506 14 222 12.9 16.1 0.00 0.00 0.00 80 1013.8
20260505031000 14 234 8.0 14.5 0.00 0.00 0.00 79 1013.4
20260505030451 14 246 9.7 14.5 0.00 0.00 0.00 79 1013.4
20260505025945 15 265 9.7 16.1 0.00 0.00 0.00 78 1013.4
20260505023915 15 231 8.0 17.7 0.00 0.00 0.00 78 1013.4
20260505023407 15 232 14.5 22.5 0.00 0.00 0.00 78 1013.4
20260505022900 15 258 11.3 22.5 0.00 0.00 0.00 78 1013.4
20260505022353 15 192 9.7 16.1 0.00 0.00 0.00 78 1013.4
20260505021846 15 247 11.3 22.5 0.00 0.00 0.00 79 1013.4
20260505021339 15 280 14.5 24.1 0.00 0.00 0.00 78 1013.4
20260505020831 15 230 14.5 24.1 0.00 0.00 0.00 78 1013.4